Location: Newark
(37.9128°N, 122.4756°W)
Time: 12:05:53
(UTC+00:00)

X-37B - Pass Details

Date: 10 March 2021
Orbit: 380 x 394 km, 45.0° (Epoch: 07 April)

Event Time Altitude Azimuth Distance (km) Brightness Sun altitude
Rises 03:13:03 0° 208° (SSW) 2,256 4.8 -12.9°
Reaches altitude 10° 03:15:26 10° 191° (S) 1,409 3.5 -13.4°
Maximum altitude 03:17:51 20° 141° (SE) 963 2.2 -13.8°
Enters shadow 03:17:56 20° 138° (SE) 964 2.1 -13.9°
